User: anonymous   Login
Location: Unspecified
(0.0000°N, 0.0000°E)
Time: 18:38:15
(UTC+00:00)
Language:

Elektron 1 - Orbit

View from above orbital plane
View from above orbital plane
View from above satellite
View from above satellite

Ground track
Ground track

The orbit data is extracted from the following two-line orbital elements,

1   746U 64006A   17142.81166463 +.00000669 +00000-0 +17533-3 0  9996
2   746 060.8350 317.6844 3046036 100.4869 294.8508 09.03222646767330
Epoch (UTC): 22 May 2017 19:28:47
Eccentricity: 0.3046036
inclination: 60.8350°
perigee height: 395 km
apogee height: 6328 km
right ascension of ascending node: 317.6844°
argument of perigee: 100.4869°
revolutions per day: 9.03222646
mean anomaly at epoch: 294.8508°
orbit number at epoch: 76733

The dashed part of the orbit path shows where the satellite is in the earth's shadow,  

DLR